{"data":{"norad_id":57810,"epoch":"2026-05-25T02:07:59.342592Z","epoch_age_seconds":68105,"freshness":"FRESH","line1":"1 57810U 23138C   26145.08888128  .00014655  00000+0  54084-3 0  9993","line2":"2 57810  43.0037 162.6339 0000970 273.0497  87.0243 15.27591169150329","mean_motion":15.27591169,"eccentricity":9.7e-5,"inclination_deg":43.0037,"raan_deg":162.6339,"arg_perigee_deg":273.0497,"mean_anomaly_deg":87.0243,"bstar":0.00054084,"rev_number":15032,"period_min":94.266059481259,"perigee_km":482.35012043213,"apogee_km":483.68118404667,"semimajor_km":6861.1526522394,"source":"CELESTRAK","updated_at":"2026-05-25T13:38:18.408532Z"}}